Other Surface Observations
Issued by NWS Charleston, SC

Home | Current Version | Previous Version | Text Only | Print | Product List | Glossary On
Versions: 1 2 3 4 5 6 7 8 9 10 11 12 13 14 15 16 17 18 19 20 21 22 23 24 25 26 27 28 29 30 31 32 33 34 35 36 37 38 39 40 41 42 43 44 45 46 47 48 49 50
000
SXUS52 KCHS 270510
OSOCHS

Marine Observations
National Weather Service Charleston SC
1200 AM EST SUN NOV 27 2022

...Downtown Charleston and Harbor...

CITY           SKY/WX    TMP DP  RH WIND       PRES   REMARKS
Waterfront Prk   N/A     61  55  81 N5        29.90F

...Lake Moultrie...

CITY           SKY/WX    TMP DP  RH WIND       PRES   REMARKS
Pinopolis        N/A     57  54  88 VRB2        N/A

...Lake and Supplemental Coastal Observations...

STATION/POSITION TIME  TEMP    WIND        PRES    WAVE   SWELL
                       AIR SEA DIR/SP/G            HT/PER HT/PER/DIR
                 (UTC) (F)     (DEG/KT/KT) (MB)    (FT/S) (FT/S/D)
Chrlstn Harbor   0424   62 60   10/  5/  5 1015.8
Fort Pulaski     0424   62 62   80/  9/ 12 1017.0
Sapelo Island    0400   63      20/  5     1017.0
Winyah Bay       0345   61      50/  7     1018.0
Lake Murray      0420   57      90/  7/  8   N/A
ACE Basin NERRS  0345   60     350/  1     1019.0


...C-MAN and Buoy Observations...

STATION/POSITION TIME  TEMP    WIND        PRES    WAVE   SWELL
                       AIR SEA DIR/SP/G            HT/PER HT/PER/DIR
                 (UTC) (F)     (DEG/KT/KT) (MB)    (FT/S) (FT/S/D)
Buoy 41004       0450   74 76  140/ 17/ 23 1017.3F   5/ 4   2/ 90/ 8
Buoy 41008       0450   69 67  170/  6/  8 1015.7F   3/ 7   3/ 90/ 7
Folly Beach CMAN 0400   61      10/  4/  5 1018.0F
Pritchards Islan NOT AVBL
Chas Pilot Buoy  NOT AVBL
Chas Pilot Wave  NOT AVBL
Capers NS Buoy   NOT AVBL
Capers NS Wave   NOT AVBL
Fripp NS Buoy    NOT AVBL
5E St. Marys GA  0430   65 65                N/A     4/ 5   2/110/10


STATION/POSITION TIME  TEMP    WIND        PRES    WAVE   SWELL
                       AIR SEA DIR/SP/G            HT/PER HT/PER/DIR
                 (UTC) (F)     (DEG/KT/KT) (MB)    (FT/S) (FT/S/D)
Frying Pan Buoy  0450   70 76  150/ 16/ 19 1018.7F   3/ 9   2/120/ 9
Buoy 41025       0450      78  190/  6/ 10 1020.0F
Cape Lookout NC  0400   58     130/  3/  4 1021.0F
Buoy 41002       0450   68     110/  8/ 12 1019.1F   6/10   7/ 50/10
Buoy 41010       0450   76     130/ 14/ 17 1018.1F   5/ 9   3/100/ 9
St Augustine FL  0500   65 65   10/  2/  2 1016.0F

$$



USA.gov is the U.S. government's official web portal to all federal, state and local government web resources and services.